CW2195 Weather Reports


Display with metric or nautical units.
time (UTC)temp
F
wind
direction
speed
MPH
gust
MPH
rain 1hr
in
rain 24hr
in
rain mn
in
humidity
%
barometer
mb
20260510104004 51 36 0.0 2.0 0.00 0.00 0.00 84 1015.4
20260510103504 50 64 0.0 2.0 0.00 0.00 0.00 85 1015.3
20260510103004 50 64 0.0 2.0 0.00 0.00 0.00 84 1015.2
20260510102504 51 64 0.0 0.0 0.00 0.00 0.00 83 1015.1
20260510102004 51 64 0.0 0.0 0.00 0.00 0.00 83 1015.1
20260510101504 51 64 0.0 1.0 0.00 0.00 0.00 83 1015.0
20260510101004 51 64 0.0 1.0 0.00 0.00 0.00 83 1015.1
20260510095004 51 64 1.0 3.0 0.00 0.00 0.00 84 1015.0
20260510094504 50 63 1.0 3.0 0.00 0.00 0.00 85 1015.0
20260510094005 50 60 2.0 3.0 0.00 0.00 0.00 84 1015.0
20260510093503 50 46 1.0 3.0 0.00 0.00 0.00 83 1014.9
20260510093004 51 15 1.0 3.0 0.00 0.00 0.00 82 1014.8
20260510092504 51 64 2.0 3.0 0.00 0.00 0.00 83 1014.8
20260510092003 51 52 1.0 3.0 0.00 0.00 0.00 82 1014.7
20260510091504 51 46 0.0 2.0 0.00 0.00 0.00 80 1014.7
20260510091004 52 46 0.0 0.0 0.00 0.00 0.00 81 1014.7
20260510090504 52 46 0.0 0.0 0.00 0.00 0.00 80 1014.7
20260510090004 52 46 0.0 0.0 0.00 0.00 0.00 81 1014.7
20260510085504 52 46 0.0 0.0 0.00 0.00 0.00 81 1014.7
20260510085003 51 46 0.0 0.0 0.00 0.00 0.00 81 1014.8
20260510084504 52 46 0.0 0.0 0.00 0.00 0.00 81 1014.7
20260510084004 52 46 0.0 0.0 0.00 0.00 0.00 80 1014.7
20260510083503 52 46 0.0 1.0 0.00 0.00 0.00 80 1014.7
20260510083004 52 46 0.0 1.0 0.00 0.00 0.00 80 1014.6
20260510082504 53 46 0.0 2.0 0.00 0.00 0.00 78 1014.6
20260510082003 53 46 0.0 3.0 0.00 0.00 0.00 79 1014.6
20260510081504 53 46 0.0 3.0 0.00 0.00 0.00 78 1014.4
20260510081005 53 46 1.0 3.0 0.00 0.00 0.00 78 1014.4
20260510080503 53 94 0.0 2.0 0.00 0.00 0.00 79 1014.2
20260510080004 53 90 0.0 2.0 0.00 0.00 0.00 79 1014.1
20260510075503 52 86 1.0 2.0 0.00 0.00 0.00 79 1014.2
20260510074504 52 317 0.0 1.0 0.00 0.00 0.00 78 1014.2
20260510074004 53 317 0.0 3.0 0.00 0.00 0.00 77 1014.2
20260510073503 53 317 0.0 3.0 0.00 0.00 0.00 76 1014.1
20260510073004 54 171 0.0 0.0 0.00 0.00 0.00 75 1014.1
20260510072504 54 171 0.0 0.0 0.00 0.00 0.00 75 1013.9
20260510071504 56 171 0.0 5.0 0.00 0.00 0.00 72 1013.8
20260510071005 56 171 0.0 5.0 0.00 0.00 0.00 70 1013.7
20260510070504 57 309 1.0 3.0 0.00 0.00 0.00 68 1013.8
20260510065503 58 207 1.0 3.0 0.00 0.00 0.00 67 1013.8
20260510065004 58 207 1.0 6.0 0.00 0.00 0.00 68 1013.7
20260510064504 58 187 2.0 6.0 0.00 0.00 0.00 68 1013.8
20260510064004 58 172 0.0 5.0 0.00 0.00 0.00 68 1013.8
20260510063504 57 172 1.0 5.0 0.00 0.00 0.00 69 1013.9
20260510063004 57 159 0.0 2.0 0.00 0.00 0.00 70 1013.9
20260510062503 57 153 0.0 3.0 0.00 0.00 0.00 71 1014.0
20260510062003 56 153 0.0 3.0 0.00 0.00 0.00 72 1014.0
20260510061504 55 73 0.0 1.0 0.00 0.00 0.00 74 1014.0
20260510061004 55 71 0.0 0.0 0.00 0.00 0.00 74 1014.0
20260510060504 54 71 0.0 2.0 0.00 0.00 0.00 75 1014.0
20260510060004 53 71 0.0 3.0 0.00 0.00 0.00 76 1014.1
20260510055503 54 71 1.0 3.0 0.00 0.00 0.00 75 1014.1
20260510055004 54 69 0.0 2.0 0.00 0.00 0.00 73 1014.2
20260510054504 56 69 0.0 0.0 0.00 0.00 0.00 70 1014.1
20260510054004 56 65 0.0 0.0 0.00 0.00 0.00 71 1014.1
20260510053504 56 65 0.0 0.0 0.00 0.00 0.00 71 1014.2
20260510053003 55 65 0.0 0.0 0.00 0.00 0.00 72 1014.1
20260510052503 55 65 0.0 0.0 0.00 0.00 0.00 72 1014.2
20260510052004 56 65 0.0 0.0 0.00 0.00 0.00 72 1014.1
20260510051504 55 65 0.0 1.0 0.00 0.00 0.00 72 1014.1
20260510051003 56 65 0.0 1.0 0.00 0.00 0.00 70 1014.0
20260510050004 57 65 0.0 0.0 0.00 0.00 0.00 69 1014.1
20260510045004 56 65 0.0 2.0 0.00 0.00 0.00 70 1013.9
20260510044004 56 65 0.0 0.0 0.00 0.00 0.00 70 1014.0
20260510043503 56 65 0.0 0.0 0.00 0.00 0.00 70 1014.0
20260510043003 56 65 0.0 0.0 0.00 0.00 0.00 70 1014.2
20260510042504 56 65 0.0 2.0 0.00 0.00 0.00 70 1014.1
20260510042005 56 65 0.0 2.0 0.00 0.00 0.00 70 1014.0
20260510041503 57 65 0.0 0.0 0.00 0.00 0.00 69 1014.0
20260510041004 58 65 0.0 0.0 0.00 0.00 0.00 67 1014.0
20260510040505 58 65 0.0 0.0 0.00 0.00 0.00 66 1013.9
20260510040004 59 65 0.0 1.0 0.00 0.00 0.00 65 1014.0
20260510035504 59 65 0.0 1.0 0.00 0.00 0.00 65 1014.0
20260510035003 58 65 0.0 1.0 0.00 0.00 0.00 66 1014.0
20260510034504 58 65 0.0 1.0 0.00 0.00 0.00 66 1014.1
20260510034004 58 65 0.0 1.0 0.00 0.00 0.00 65 1014.0
20260510033504 58 65 0.0 1.0 0.00 0.00 0.00 66 1014.0
20260510033004 58 65 0.0 3.0 0.00 0.00 0.00 66 1014.0
20260510032505 59 65 1.0 3.0 0.00 0.00 0.00 65 1013.7
20260510032004 60 355 0.0 3.0 0.00 0.00 0.00 63 1013.6
20260510031504 60 355 2.0 3.0 0.00 0.00 0.00 62 1013.7
20260510031006 60 119 0.0 1.0 0.00 0.00 0.00 62 1013.6
20260510030524 61 143 0.0 0.0 0.00 0.00 0.00 61 1013.6
20260510030004 61 144 0.0 1.0 0.00 0.00 0.00 60 1013.6
20260510025503 61 144 0.0 1.0 0.00 0.00 0.00 60 1013.7
20260510025004 61 144 0.0 1.0 0.00 0.00 0.00 60 1013.5
20260510024504 61 144 0.0 0.0 0.00 0.00 0.00 59 1013.4
20260510023504 62 144 0.0 0.0 0.00 0.00 0.00 58 1013.5
20260510023004 62 144 0.0 0.0 0.00 0.00 0.00 58 1013.4
20260510022004 63 144 0.0 0.0 0.00 0.00 0.00 56 1013.3
20260510021504 63 144 0.0 0.0 0.00 0.00 0.00 55 1013.3
20260510021004 63 144 0.0 0.0 0.00 0.00 0.00 56 1013.3
20260510020504 63 144 0.0 0.0 0.00 0.00 0.00 55 1013.2
20260510020005 64 144 0.0 0.0 0.00 0.00 0.00 54 1013.1
20260510015004 64 144 0.0 1.0 0.00 0.00 0.00 53 1012.9
20260510014504 65 144 0.0 1.0 0.00 0.00 0.00 53 1012.8
20260510014004 65 137 0.0 1.0 0.00 0.00 0.00 52 1012.5
20260510013504 65 135 0.0 1.0 0.00 0.00 0.00 51 1012.4
20260510013004 66 135 0.0 2.0 0.00 0.00 0.00 50 1012.3
20260510012504 66 135 0.0 3.0 0.00 0.00 0.00 49 1012.2
20260510011504 63 90 0.0 2.0 0.00 0.00 0.00 54 1012.1
20260510011004 64 60 0.0 1.0 0.00 0.00 0.00 55 1012.1
20260510010503 64 57 0.0 1.0 0.00 0.00 0.00 53 1012.0
20260510005004 66 332 0.0 1.0 0.00 0.00 0.00 49 1011.8
20260510004503 67 332 0.0 1.0 0.00 0.00 0.00 48 1011.9
20260510003503 68 334 0.0 3.0 0.00 0.00 0.00 46 1011.9
20260510003004 68 334 1.0 3.0 0.00 0.00 0.00 45 1011.8
20260510002504 68 308 1.0 3.0 0.00 0.00 0.00 44 1011.8
20260510002004 69 309 1.0 5.0 0.00 0.00 0.00 44 1011.7
20260510001004 69 355 3.0 12.0 0.00 0.00 0.00 44 1011.6
20260510000504 69 322 4.0 8.0 0.00 0.00 0.00 44 1011.4
20260510000005 69 346 1.0 6.0 0.00 0.00 0.00 44 1011.4
20260509235504 70 347 2.0 8.0 0.00 0.00 0.00 44 1011.2
20260509235004 70 335 2.0 8.0 0.00 0.00 0.00 44 1011.1
20260509234504 71 334 5.0 8.0 0.00 0.00 0.00 43 1011.0
20260509234005 71 337 3.0 8.0 0.00 0.00 0.00 43 1010.9
20260509233504 71 356 3.0 6.0 0.00 0.00 0.00 43 1010.7
20260509232503 72 353 2.0 8.0 0.00 0.00 0.00 43 1010.9
20260509232004 72 347 3.0 8.0 0.00 0.00 0.00 41 1010.8
20260509231507 73 353 3.0 10.0 0.00 0.00 0.00 41 1010.7
20260509231003 74 335 4.0 15.0 0.00 0.00 0.00 41 1010.7
20260509230504 74 334 6.0 15.0 0.00 0.00 0.00 39 1010.6
20260509230004 74 349 7.0 13.0 0.00 0.00 0.00 40 1010.6
20260509225503 74 322 6.0 13.0 0.00 0.00 0.00 40 1010.6
20260509225004 74 356 3.0 12.0 0.00 0.00 0.00 40 1010.5
20260509224504 75 269 2.0 12.0 0.00 0.00 0.00 40 1010.6
20260509224004 75 332 3.0 9.0 0.00 0.00 0.00 41 1010.6
20260509223504 75 340 3.0 8.0 0.00 0.00 0.00 41 1010.5
20260509223005 75 343 4.0 9.0 0.00 0.00 0.00 42 1010.5
20260509222004 76 317 3.0 10.0 0.00 0.00 0.00 40 1010.5
20260509221504 76 340 5.0 10.0 0.00 0.00 0.00 39 1010.4
20260509221004 76 317 3.0 12.0 0.00 0.00 0.00 38 1010.5
20260509220505 76 250 5.0 12.0 0.00 0.00 0.00 41 1010.5
20260509220004 75 271 2.0 8.0 0.00 0.00 0.00 42 1010.4
20260509215504 74 273 2.0 8.0 0.00 0.00 0.00 41 1010.3
20260509214504 74 267 5.0 10.0 0.00 0.00 0.00 41 1010.3
20260509214004 73 219 5.0 10.0 0.00 0.00 0.00 42 1010.3
20260509213004 73 233 4.0 12.0 0.00 0.00 0.00 42 1010.1
20260509212503 74 336 5.0 10.0 0.00 0.00 0.00 41 1010.0
20260509212003 74 240 3.0 10.0 0.00 0.00 0.00 40 1010.1
20260509211504 74 260 4.0 12.0 0.00 0.00 0.00 40 1009.9
20260509211004 74 221 6.0 12.0 0.00 0.00 0.00 40 1009.8
20260509210505 74 291 5.0 12.0 0.00 0.00 0.00 40 1009.8
20260509205504 74 255 1.0 10.0 0.00 0.00 0.00 41 1009.8
20260509205003 75 189 5.0 12.0 0.00 0.00 0.00 40 1009.7
20260509204504 75 218 6.0 12.0 0.00 0.00 0.00 38 1009.6
20260509203504 74 227 5.0 14.0 0.00 0.00 0.00 41 1009.7
20260509203004 74 200 4.0 14.0 0.00 0.00 0.00 40 1009.6
20260509202504 75 237 3.0 8.0 0.00 0.00 0.00 40 1009.7
20260509202003 76 228 2.0 10.0 0.00 0.00 0.00 38 1009.8
20260509201504 74 216 5.0 10.0 0.00 0.00 0.00 42 1009.8
20260509201004 74 261 3.0 10.0 0.00 0.00 0.00 41 1009.6
20260509200505 74 228 4.0 10.0 0.00 0.00 0.00 42 1009.7
20260509200004 75 219 5.0 10.0 0.00 0.00 0.00 39 1009.8
20260509195505 76 216 6.0 12.0 0.00 0.00 0.00 39 1009.7
20260509195003 75 273 5.0 12.0 0.00 0.00 0.00 42 1009.8
20260509194504 75 270 5.0 13.0 0.00 0.00 0.00 38 1009.8
20260509193005 76 181 6.0 12.0 0.00 0.00 0.00 37 1009.7
20260509192504 76 180 5.0 12.0 0.00 0.00 0.00 40 1009.7
20260509192005 76 220 6.0 12.0 0.00 0.00 0.00 38 1009.9
20260509191504 75 193 3.0 10.0 0.00 0.00 0.00 42 1010.0
20260509190004 74 200 4.0 14.0 0.00 0.00 0.00 40 1010.2
20260509185504 75 223 6.0 14.0 0.00 0.00 0.00 40 1010.3
20260509184504 75 185 5.0 9.0 0.00 0.00 0.00 41 1010.2
20260509183504 72 321 1.0 3.0 0.00 0.00 0.00 50 1010.3
20260509183004 72 151 1.0 8.0 0.00 0.00 0.00 50 1010.4
20260509182504 72 186 3.0 8.0 0.00 0.00 0.00 49 1010.6
20260509182004 73 242 3.0 10.0 0.00 0.00 0.00 46 1010.5
20260509181504 74 238 4.0 10.0 0.00 0.00 0.00 47 1010.6
20260509181004 73 168 2.0 12.0 0.00 0.00 0.00 49 1010.7
20260509180503 74 283 3.0 12.0 0.00 0.00 0.00 47 1010.8
20260509180005 74 196 3.0 12.0 0.00 0.00 0.00 47 1010.9
20260509175504 73 268 3.0 12.0 0.00 0.00 0.00 47 1011.0
20260509175004 73 237 2.0 9.0 0.00 0.00 0.00 47 1010.9
20260509174504 74 202 4.0 9.0 0.00 0.00 0.00 46 1010.9
20260509174004 74 183 5.0 9.0 0.00 0.00 0.00 46 1011.0
20260509173503 73 103 1.0 9.0 0.00 0.00 0.00 48 1011.1
20260509173004 73 192 3.0 9.0 0.00 0.00 0.00 51 1011.1
20260509172504 73 225 4.0 12.0 0.00 0.00 0.00 49 1011.2
20260509171504 73 184 5.0 9.0 0.00 0.00 0.00 51 1011.2
20260509171004 72 207 1.0 9.0 0.00 0.00 0.00 54 1011.3
20260509170504 72 209 4.0 8.0 0.00 0.00 0.00 53 1011.5
20260509165003 71 121 2.0 8.0 0.00 0.00 0.00 52 1011.7
20260509164505 71 203 3.0 8.0 0.00 0.00 0.00 56 1011.8
20260509163504 70 166 5.0 8.0 0.00 0.00 0.00 57 1012.0
20260509163004 70 237 3.0 7.0 0.00 0.00 0.00 57 1012.0
20260509162504 69 159 2.0 12.0 0.00 0.00 0.00 60 1012.0
20260509162004 69 203 5.0 12.0 0.00 0.00 0.00 58 1011.9
20260509161503 69 210 3.0 8.0 0.00 0.00 0.00 58 1011.9
20260509161004 68 221 2.0 8.0 0.00 0.00 0.00 57 1011.9
20260509160503 68 199 2.0 6.0 0.00 0.00 0.00 58 1012.1
20260509160006 67 176 0.0 6.0 0.00 0.00 0.00 58 1012.0
20260509155504 68 217 1.0 5.0 0.00 0.00 0.00 60 1012.0
20260509154504 66 151 0.0 5.0 0.00 0.00 0.00 58 1012.0
20260509154004 67 321 1.0 5.0 0.00 0.00 0.00 58 1012.3
20260509153005 65 250 0.0 6.0 0.00 0.00 0.00 60 1012.6
20260509152504 65 191 2.0 6.0 0.00 0.00 0.00 59 1012.7
20260509152005 65 212 2.0 6.0 0.00 0.00 0.00 63 1012.7
20260509151504 65 217 3.0 6.0 0.00 0.00 0.00 62 1012.6
20260509151005 65 263 1.0 3.0 0.00 0.00 0.00 63 1012.5
20260509150503 65 274 1.0 3.0 0.00 0.00 0.00 62 1012.2
20260509150004 64 344 2.0 5.0 0.00 0.00 0.00 64 1012.2
20260509145504 64 337 2.0 5.0 0.00 0.00 0.00 63 1012.4
20260509144504 62 219 1.0 5.0 0.00 0.00 0.00 66 1012.7
20260509143504 62 312 2.0 5.0 0.00 0.00 0.00 66 1012.9
20260509143004 61 235 2.0 5.0 0.00 0.00 0.00 65 1013.1
20260509142504 61 207 3.0 5.0 0.00 0.00 0.00 64 1013.1
20260509142004 62 223 3.0 5.0 0.00 0.00 0.00 63 1012.9
20260509141004 61 197 3.0 7.0 0.00 0.00 0.00 66 1013.0
20260509140504 61 188 3.0 7.0 0.00 0.00 0.00 65 1012.9
20260509140005 60 240 2.0 7.0 0.00 0.00 0.00 67 1012.9
20260509135504 61 207 2.0 7.0 0.00 0.00 0.00 66 1013.0
20260509135004 60 238 2.0 3.0 0.00 0.00 0.00 68 1012.8
20260509134503 60 238 2.0 3.0 0.00 0.00 0.00 66 1012.6
20260509133504 59 242 1.0 5.0 0.00 0.00 0.00 68 1012.9
20260509133004 59 211 2.0 5.0 0.00 0.00 0.00 67 1013.2
20260509132504 59 249 2.0 6.0 0.00 0.00 0.00 69 1013.5
20260509132005 59 329 3.0 6.0 0.00 0.00 0.00 69 1013.7
20260509131504 59 232 1.0 3.0 0.00 0.00 0.00 70 1013.7
20260509131005 57 210 1.0 3.0 0.00 0.00 0.00 70 1013.7
20260509130004 56 198 0.0 2.0 0.00 0.00 0.00 69 1013.8
20260509125004 55 198 0.0 3.0 0.00 0.00 0.00 70 1013.8
20260509124504 54 192 0.0 1.0 0.00 0.00 0.00 69 1013.8
20260509124004 54 322 0.0 2.0 0.00 0.00 0.00 71 1013.9
20260509123503 53 321 1.0 2.0 0.00 0.00 0.00 72 1013.9
20260509123004 52 331 1.0 2.0 0.00 0.00 0.00 74 1014.0
20260509122004 52 331 0.0 3.0 0.00 0.00 0.00 74 1014.1
20260509121504 52 190 1.0 2.0 0.00 0.00 0.00 74 1014.1
20260509121004 52 140 0.0 2.0 0.00 0.00 0.00 73 1014.1
20260509120504 52 281 0.0 2.0 0.00 0.00 0.00 72 1014.2
20260509120004 51 284 0.0 2.0 0.00 0.00 0.00 74 1014.1
20260509115508 51 277 1.0 2.0 0.00 0.00 0.00 74 1014.0
20260509115004 51 180 0.0 0.0 0.00 0.00 0.00 75 1013.8
20260509114504 51 180 0.0 0.0 0.00 0.00 0.00 73 1013.9
20260509114004 50 180 0.0 0.0 0.00 0.00 0.00 77 1013.9
20260509113504 50 180 0.0 1.0 0.00 0.00 0.00 77 1013.9
20260509113004 49 5 0.0 1.0 0.00 0.00 0.00 76 1014.0
20260509112504 49 5 0.0 2.0 0.00 0.00 0.00 76 1014.0
20260509112004 50 5 0.0 3.0 0.00 0.00 0.00 76 1014.1
20260509111504 51 5 2.0 3.0 0.00 0.00 0.00 74 1014.0
20260509111005 52 67 0.0 2.0 0.00 0.00 0.00 68 1013.9
20260509110504 51 63 0.0 1.0 0.00 0.00 0.00 69 1013.9
20260509110004 51 58 0.0 0.0 0.00 0.00 0.00 71 1013.8
20260509105504 50 57 0.0 0.0 0.00 0.00 0.00 73 1013.8
20260509105004 50 57 0.0 0.0 0.00 0.00 0.00 74 1013.7
20260509104504 50 57 0.0 1.0 0.00 0.00 0.00 74 1013.8